Find Local Weather

World > North America > United States > Wisconsin

Cambridge, Wisconsin Regional Weather

Lat: 43.01N, Lon: 89.02W
Wx Zone: WIZ063
Feedback
Expires:201804241500;;429475
ASUS43 KMKX 241420
RWRWI 

WISCONSIN REGIONAL WEATHER ROUNDUP
NATIONAL WEATHER SERVICE MILWAUKEE/SULLIVAN WI
900 AM CDT TUE APR 24 2018

NOTE: "FAIR" INDICATES FEW OR NO CLOUDS BELOW 12,000 FEET WITH NO
SIGNIFICANT WEATHER AND/OR OBSTRUCTIONS TO VISIBILITY.


WIZ051-052-058>065-066-070>072-241500-
SOUTHEAST WISCONSIN
  
CITY           SKY/WX    TMP DP  RH WIND       PRES   REMARKS
MILWAUKEE      PTSUNNY   49  33  54 N5        30.09F                  
WAUKESHA       SUNNY     54  28  37 NE7       30.09F                  
MILWAUKEE/TIMM SUNNY     52  27  37 NE5       30.09S                  
RACINE         CLOUDY    47  33  58 N8        30.10S                  
BURLINGTON     FAIR      53  30  41 NE7       30.08F                  
KENOSHA        PTSUNNY   50  35  56 N3        30.08S                  
FOND DU LAC    FAIR      52  35  52 N5        30.10F                  
SHEBOYGAN      FAIR      52  34  50 N9        30.08F                  
WEST BEND      FAIR      54  27  35 N7        30.08S                  
JUNEAU         FAIR      52  32  47 N7        30.11S                  
$$


SKY/WX - Weather  TMP - Temperature  DP - Dewpoint  RH - Relative Humidity
WIND - Wind Direction/Speed PRES - Barometric Pressure